TimeEDT,TemperatureF,Dew PointF,Humidity,Sea Level PressureIn,VisibilityMPH,Wind Direction,Wind SpeedMPH,Gust SpeedMPH,PrecipitationIn,Events,Conditions,WindDirDegrees,DateUTC
12:53 AM,24.1,18.0,77,30.35,10.0,Calm,Calm,-,N/A,,Clear,0,2013-04-04 04:53:00
1:53 AM,21.9,18.0,85,30.35,10.0,SE,3.5,-,N/A,,Clear,130,2013-04-04 05:53:00
2:53 AM,21.0,17.1,85,30.34,10.0,SE,3.5,-,N/A,,Clear,130,2013-04-04 06:53:00
3:53 AM,23.0,18.0,81,30.31,10.0,SE,4.6,-,N/A,,Clear,130,2013-04-04 07:53:00
4:53 AM,25.0,18.0,75,30.29,10.0,Calm,Calm,-,N/A,,Clear,0,2013-04-04 08:53:00
5:53 AM,27.0,17.1,66,30.27,10.0,SSE,4.6,-,N/A,,Clear,150,2013-04-04 09:53:00
6:53 AM,28.0,17.1,63,30.25,10.0,SSE,4.6,-,N/A,,Clear,150,2013-04-04 10:53:00
7:53 AM,28.9,17.1,61,30.25,10.0,SSE,3.5,-,N/A,,Clear,150,2013-04-04 11:53:00
8:53 AM,33.1,18.0,54,30.25,10.0,South,6.9,-,N/A,,Clear,170,2013-04-04 12:53:00
9:53 AM,39.0,18.0,43,30.22,10.0,South,6.9,-,N/A,,Clear,180,2013-04-04 13:53:00
10:53 AM,45.0,19.0,36,30.21,10.0,South,8.1,-,N/A,,Clear,190,2013-04-04 14:53:00
11:53 AM,48.0,17.1,29,30.19,10.0,SW,15.0,-,N/A,,Clear,220,2013-04-04 15:53:00
12:53 PM,48.9,17.1,28,30.16,10.0,WSW,15.0,-,N/A,,Clear,250,2013-04-04 16:53:00
1:53 PM,48.9,16.0,27,30.13,10.0,WSW,15.0,-,N/A,,Clear,250,2013-04-04 17:53:00
2:53 PM,50.0,17.1,27,30.10,10.0,West,13.8,-,N/A,,Clear,270,2013-04-04 18:53:00
3:53 PM,50.0,16.0,26,30.08,10.0,WSW,11.5,-,N/A,,Clear,250,2013-04-04 19:53:00
4:53 PM,51.1,15.1,24,30.05,10.0,WSW,10.4,-,N/A,,Clear,250,2013-04-04 20:53:00
5:53 PM,52.0,17.1,25,30.03,10.0,WSW,10.4,-,N/A,,Clear,250,2013-04-04 21:53:00
6:53 PM,53.1,17.1,24,30.01,10.0,SW,10.4,-,N/A,,Clear,230,2013-04-04 22:53:00
7:53 PM,50.0,18.0,28,29.99,10.0,SW,6.9,-,N/A,,Clear,220,2013-04-04 23:53:00
8:53 PM,50.0,19.0,29,29.99,10.0,SW,3.5,-,N/A,,Overcast,220,2013-04-05 00:53:00
9:53 PM,50.0,19.0,29,29.99,10.0,South,3.5,-,N/A,,Overcast,190,2013-04-05 01:53:00
10:53 PM,50.0,19.9,31,29.98,10.0,South,4.6,-,N/A,,Overcast,190,2013-04-05 02:53:00
11:53 PM,48.0,24.1,39,29.96,10.0,West,9.2,-,N/A,,Overcast,260,2013-04-05 03:53:00